Location: Krakow
(50.0830°N, 19.9170°E)
Time: 07:25:10
(UTC+02:00)

A-11 Canister half - Pass Details

Date: 23 March 2026
Orbit: 1523 x 1684 km, 47.3° (Epoch: 18 April)

Event Time Altitude Azimuth Distance (km) Brightness Sun altitude
Rises 10:14:17 0° 268° (W) 4,886 11.4 37.2°
Reaches altitude 10° 10:17:27 10° 267° (W) 3,881 11.0 37.4°
Maximum altitude 10:27:19 76° 184° (S) 1,642 10.1 38.2°
Drops below altitude 10° 10:36:49 10° 101° (ESE) 3,750 11.6 38.8°
Sets 10:39:51 0° 100° (E) 4,716 11.9 39.0°
